Location: Red Deer
(52.2681°N, 113.8112°W)
Time: 00:07:58
(UTC-06:00)

QB50P2 - Pass Details

Date: 30 May 2022
Orbit: 589 x 607 km, 97.9° (Epoch: 27 June)

Event Time Altitude Azimuth Distance (km) Brightness Sun altitude
Rises 04:29:18 0° 3° (N) 2,837 ? -6.6°
Reaches altitude 10° 04:31:57 10° 346° (NNW) 1,930 ? -6.3°
Maximum altitude 04:34:55 19° 301° (WNW) 1,420 ? -6.0°
Drops below altitude 10° 04:37:53 10° 255° (WSW) 1,920 ? -5.7°
Enters shadow 04:39:11 - 245° (WSW) 2,343 ? -5.5°
